User: anonymous   Login
Location: Allentsteig
(48.6833°N, 15.3167°E)
Time: 17:09:20
(UTC+00:00)
Language:

Lacrosse 5 rocket - Orbit

View from above orbital plane
View from above orbital plane
View from above satellite
View from above satellite

Ground track
Ground track

The orbit data is extracted from the following two-line orbital elements,

1 28647U 05016B   20337.55080925  .00000945  00000-0  71246-4 0  9990
2 28647  56.9967 276.7945 0129723  86.9137 274.6735 15.06154457 85284
Epoch (UTC): 02 December 2020 13:13:09
Eccentricity: 0.0129723
inclination: 56.9967°
perigee height: 458 km
apogee height: 638 km
right ascension of ascending node: 276.7945°
argument of perigee: 86.9137°
revolutions per day: 15.06154457
mean anomaly at epoch: 274.6735°
orbit number at epoch: 8528

The dashed part of the orbit path shows where the satellite is in the earth's shadow,  

DLR